Weather History for Brenham, TX

Change the Weather History Date:

Monday, February 4, 2013

  Actual Average (KCLL) Record (KCLL)
Temperature  
Mean Temperature 65 °F 53 °F  
Max Temperature 75 °F 63 °F 82 °F (1957)
Min Temperature 55 °F 42 °F 16 °F (1996)
Degree Days  
Heating Degree Days 0 13  
Month to date heating degree days 52  
Since 1 July heating degree days 1130  
Cooling Degree Days 0 1  
Month to date cooling degree days 1  
Year to date cooling degree days 12  
Growing Degree Days 15 (Base 50)    
Moisture  
Dew Point 54 °F    
Average Humidity 70    
Maximum Humidity 94    
Minimum Humidity 34    
Precipitation  
Precipitation 0.00 in 0.10 in 3.34 in (1955)
Month to date precipitation 0.40  
Year to date precipitation 3.64  
Sea Level Pressure  
Sea Level Pressure 29.93 in    
Wind  
Wind Speed 4 mph (SSE)    
Max Wind Speed 13 mph    
Max Gust Speed 16 mph    
Visibility 10 miles    
Events Rain    
T = Trace of Precipitation, MM = Missing Value Source: NWS Daily Summary

Daily Weather History Graph

Daily Weather History Graph

Search for Another Location

Airport:

Trip Planner

Search our weather history database for the weather conditions in past years. The results will help you decide how hot, cold, wet, or windy it might be!

Date:

Astronomy

Feb. 04, 2013 Rise Set
Actual Time 7:14 AM CST 6:05 PM CST
Civil Twilight 6:49 AM CST 6:30 PM CST
Nautical Twilight 6:20 AM CST 6:58 PM CST
Astronomical Twilight 5:52 AM CST 7:26 PM CST
Moon 1:46 AM CST (2/4) 12:35 PM CST (2/4)
Length of Visible Light 11h 41m
Length of Day
10h 51m
Last Quarter, 37% of the Moon is Illuminated
Feb 4
Last Quarter
Feb 10
New
Feb 17
First Quarter
Feb 25
Full
Mar 4
Last Quarter

Hourly Weather History & Observations

Time (CST) Temp. Dew Point Humidity Pressure Visibility Wind Dir Wind Speed Gust Speed Precip Events Conditions
12:15 AM 59.0 °F 30.2 °F 34% 30.08 in 10.0 mi SSE 4.6 mph - N/A   Clear
12:35 AM 59.0 °F 32.0 °F 36% 30.06 in 10.0 mi SSE 4.6 mph - N/A   Clear
12:55 AM 59.0 °F 32.0 °F 36% 30.05 in 10.0 mi SE 4.6 mph - N/A   Clear
1:15 AM 59.0 °F 33.8 °F 39% 30.04 in 10.0 mi SE 3.5 mph - N/A   Clear
1:35 AM 59.0 °F 33.8 °F 39% 30.03 in 10.0 mi SSE 4.6 mph - N/A   Clear
1:55 AM 57.2 °F 35.6 °F 44% 30.03 in 10.0 mi SE 3.5 mph - N/A   Clear
2:15 AM 57.2 °F 39.2 °F 51% 30.02 in 10.0 mi SE 3.5 mph - N/A   Clear
2:35 AM 57.2 °F 42.8 °F 59% 30.01 in 10.0 mi Calm Calm - N/A   Clear
2:55 AM 57.2 °F 42.8 °F 59% 30.01 in 10.0 mi SE 3.5 mph - N/A   Clear
3:15 AM 57.2 °F 42.8 °F 59% 30.01 in 10.0 mi SSE 3.5 mph - N/A   Clear
4:55 AM 57.2 °F 46.4 °F 67% 30.00 in 10.0 mi Calm Calm - N/A   Scattered Clouds
5:15 AM 55.4 °F 46.4 °F 72% 29.98 in 10.0 mi East 3.5 mph - N/A   Mostly Cloudy
5:35 AM 55.4 °F 46.4 °F 72% 29.97 in 10.0 mi Calm Calm - N/A   Scattered Clouds
5:55 AM 55.4 °F 46.4 °F 72% 29.98 in 10.0 mi Calm Calm - N/A   Scattered Clouds
6:15 AM 55.4 °F 48.2 °F 77% 29.99 in 10.0 mi Calm Calm - N/A   Scattered Clouds
6:35 AM 55.4 °F 48.2 °F 77% 29.99 in 10.0 mi Calm Calm - N/A   Mostly Cloudy
6:55 AM 55.4 °F 50.0 °F 82% 29.98 in 10.0 mi Calm Calm - N/A   Overcast
7:15 AM 57.2 °F 50.0 °F 77% 29.98 in 10.0 mi Calm Calm - N/A   Overcast
7:35 AM 57.2 °F 50.0 °F 77% 29.99 in 10.0 mi Calm Calm - N/A   Overcast
7:55 AM 59.0 °F 51.8 °F 77% 29.99 in 10.0 mi Calm Calm - N/A   Mostly Cloudy
8:15 AM 59.0 °F 51.8 °F 77% 29.99 in 10.0 mi Calm Calm - N/A   Mostly Cloudy
8:35 AM 59.0 °F 51.8 °F 77% 29.99 in 10.0 mi Calm Calm - N/A   Mostly Cloudy
8:55 AM 59.0 °F 53.6 °F 82% 29.99 in 10.0 mi Calm Calm - N/A   Mostly Cloudy
9:15 AM 60.8 °F 53.6 °F 77% 29.99 in 10.0 mi Calm Calm - N/A Rain Light Rain
9:35 AM 60.8 °F 53.6 °F 77% 29.98 in 10.0 mi SE 3.5 mph - N/A   Overcast
9:55 AM 62.6 °F 55.4 °F 77% 29.97 in 10.0 mi SSE 5.8 mph - N/A   Mostly Cloudy
10:15 AM 62.6 °F 55.4 °F 77% 29.97 in 10.0 mi SSE 5.8 mph - N/A   Scattered Clouds
10:35 AM 62.6 °F 55.4 °F 77% 29.97 in 10.0 mi SSE 5.8 mph - N/A   Mostly Cloudy
10:55 AM 64.4 °F 55.4 °F 73% 29.97 in 10.0 mi SSE 4.6 mph - N/A   Mostly Cloudy
11:15 AM 64.4 °F 57.2 °F 77% 29.95 in 10.0 mi SSE 8.1 mph - N/A   Scattered Clouds
11:35 AM 66.2 °F 57.2 °F 73% 29.94 in 10.0 mi SSE 10.4 mph - N/A   Clear
11:55 AM 68.0 °F 59.0 °F 73% 29.92 in 10.0 mi SSE 8.1 mph - N/A   Mostly Cloudy
12:15 PM 68.0 °F 59.0 °F 73% 29.93 in 10.0 mi South 4.6 mph - N/A   Overcast
12:35 PM 69.8 °F 59.0 °F 68% 29.92 in 10.0 mi South 10.4 mph - N/A   Overcast
12:55 PM 69.8 °F 59.0 °F 68% 29.90 in 10.0 mi South 9.2 mph - N/A   Overcast
1:15 PM 71.6 °F 59.0 °F 64% 29.90 in 10.0 mi SSW 11.5 mph - N/A   Overcast
1:35 PM 71.6 °F 60.8 °F 69% 29.88 in 10.0 mi South 11.5 mph 16.1 mph N/A   Overcast
1:55 PM 71.6 °F 60.8 °F 69% 29.88 in 10.0 mi SSW 8.1 mph - N/A   Overcast
2:15 PM 71.6 °F 60.8 °F 69% 29.87 in 10.0 mi SSW 5.8 mph - N/A   Mostly Cloudy
2:35 PM 73.4 °F 60.8 °F 65% 29.86 in 10.0 mi SSW 12.7 mph - N/A   Mostly Cloudy
2:55 PM 73.4 °F 60.8 °F 65% 29.85 in 10.0 mi SW 6.9 mph - N/A   Mostly Cloudy
3:15 PM 73.4 °F 59.0 °F 61% 29.85 in 10.0 mi SSW 8.1 mph - N/A   Overcast
3:35 PM 75.2 °F 60.8 °F 61% 29.84 in 10.0 mi SSW 8.1 mph - N/A   Overcast
3:55 PM 75.2 °F 60.8 °F 61% 29.84 in 10.0 mi South 6.9 mph - N/A   Scattered Clouds
4:15 PM 73.4 °F 60.8 °F 65% 29.84 in 10.0 mi South 4.6 mph - N/A   Scattered Clouds
4:35 PM 73.4 °F 60.8 °F 65% 29.83 in 10.0 mi Calm Calm - N/A   Scattered Clouds
4:55 PM 75.2 °F 60.8 °F 61% 29.83 in 10.0 mi South 5.8 mph - N/A   Clear
5:15 PM 73.4 °F 60.8 °F 65% 29.83 in 10.0 mi South 4.6 mph - N/A   Clear
5:35 PM 73.4 °F 60.8 °F 65% 29.83 in 10.0 mi South 4.6 mph - N/A   Clear
5:55 PM 73.4 °F 60.8 °F 65% 29.83 in 10.0 mi Calm Calm - N/A   Clear
6:15 PM 71.6 °F 60.8 °F 69% 29.83 in 10.0 mi SSE 5.8 mph - N/A   Scattered Clouds
6:35 PM 71.6 °F 60.8 °F 69% 29.84 in 10.0 mi SSE 4.6 mph - N/A   Scattered Clouds
6:55 PM 69.8 °F 60.8 °F 73% 29.84 in 10.0 mi SSE 3.5 mph - N/A   Scattered Clouds
7:15 PM 69.8 °F 60.8 °F 73% 29.86 in 10.0 mi Calm Calm - N/A   Scattered Clouds
7:35 PM 68.0 °F 60.8 °F 78% 29.87 in 10.0 mi Calm Calm - N/A   Overcast
7:55 PM 68.0 °F 60.8 °F 78% 29.87 in 10.0 mi Calm Calm - N/A   Scattered Clouds
8:15 PM 68.0 °F 60.8 °F 78% 29.88 in 10.0 mi Calm Calm - N/A   Scattered Clouds
8:35 PM 68.0 °F 60.8 °F 78% 29.89 in 10.0 mi Calm Calm - N/A   Mostly Cloudy
8:55 PM 66.2 °F 60.8 °F 83% 29.90 in 10.0 mi ENE 3.5 mph - N/A   Mostly Cloudy
9:15 PM 66.2 °F 62.6 °F 88% 29.90 in 10.0 mi East 3.5 mph - N/A   Scattered Clouds
9:35 PM 66.2 °F 62.6 °F 88% 29.90 in 10.0 mi Calm Calm - N/A   Mostly Cloudy
9:55 PM 66.2 °F 62.6 °F 88% 29.90 in 10.0 mi SSE 3.5 mph - N/A Rain Rain
10:15 PM 66.2 °F 62.6 °F 88% 29.90 in 10.0 mi SSE 3.5 mph - N/A   Scattered Clouds
10:35 PM 66.2 °F 62.6 °F 88% 29.90 in 10.0 mi SSE 4.6 mph - N/A   Scattered Clouds
10:55 PM 64.4 °F 62.6 °F 94% 29.90 in 10.0 mi Calm Calm - N/A   Clear
11:15 PM 64.4 °F 62.6 °F 94% 29.90 in 10.0 mi Calm Calm - N/A   Mostly Cloudy
11:35 PM 66.2 °F 62.6 °F 88% 29.90 in 7.0 mi SSE 3.5 mph - N/A   Overcast
11:55 PM 66.2 °F 62.6 °F 88% 29.89 in 7.0 mi South 3.5 mph - N/A   Overcast